When you browse on this site, cookies collect data to enhance your experience and personalize the content and advertising you see.
Visit our Privacy Policy to learn more. By continuing to use the site, you agree to this use of cookies and data.
  • In Romania
  • List of Countries
  • For 7 days
  • Water Temperature
  • Satellite Maps
  • Weather Map
  • Weather Widgets
  • user-avatar
    Login

    Hourly Weather Arradon

    Today, 21 July, Sunday

    Time Temperature Precipitation Wind Pressure Humidity
    00:00 +14°C° 0 mm 3 mps 762 mmHg 96%
    01:00 +15°C° 0 mm 2 mps 762 mmHg 95%
    02:00 +15°C° 0 mm 2 mps 762 mmHg 95%
    03:00 +14°C° 0 mm 1 mps 762 mmHg 95%
    04:00 +15°C° 0 mm 1 mps 762 mmHg 93%
    05:00 +16°C° 0 mm 1 mps 762 mmHg 91%
    06:00 +18°C° 0 mm 1 mps 763 mmHg 91%
    07:00 +18°C° 0 mm 2 mps 763 mmHg 84%
    08:00 +20°C° 0 mm 2 mps 763 mmHg 76%
    09:00 +23°C° 0 mm 2 mps 763 mmHg 69%
    10:00 +24°C° 0 mm 3 mps 763 mmHg 65%
    11:00 +25°C° 0 mm 3 mps 763 mmHg 61%
    12:00 +25°C° 0 mm 4 mps 763 mmHg 57%
    13:00 +25°C° 0 mm 4 mps 763 mmHg 57%
    14:00 +25°C° 0 mm 4 mps 763 mmHg 57%
    15:00 +25°C° 0 mm 4 mps 763 mmHg 56%
    16:00 +25°C° 0 mm 4 mps 763 mmHg 60%
    17:00 +23°C° 0 mm 4 mps 763 mmHg 64%
    18:00 +22°C° 0 mm 4 mps 763 mmHg 68%
    19:00 +20°C° 0 mm 3 mps 763 mmHg 76%
    20:00 +18°C° 0 mm 3 mps 764 mmHg 84%
    21:00 +16°C° 0 mm 3 mps 765 mmHg 92%
    22:00 +16°C° 0 mm 3 mps 764 mmHg 93%
    23:00 +16°C° 0 mm 3 mps 764 mmHg 93%

    Tomorrow, 22 July, Monday

    Time Temperature Precipitation Wind Pressure Humidity
    00:00 +15°C° 0 mm 2 mps 764 mmHg 93%
    01:00 +15°C° 0 mm 2 mps 764 mmHg 92%
    02:00 +15°C° 0 mm 2 mps 764 mmHg 92%
    03:00 +15°C° 0 mm 2 mps 764 mmHg 91%
    04:00 +15°C° 0 mm 2 mps 764 mmHg 89%
    05:00 +16°C° 0 mm 2 mps 764 mmHg 87%
    06:00 +17°C° 0 mm 2 mps 764 mmHg 85%
    07:00 +20°C° 0 mm 1 mps 764 mmHg 76%
    08:00 +22°C° 0 mm 1 mps 764 mmHg 67%
    09:00 +25°C° 0 mm 1 mps 764 mmHg 57%
    10:00 +26°C° 0 mm 1 mps 764 mmHg 53%
    11:00 +27°C° 0 mm 1 mps 764 mmHg 48%
    12:00 +29°C° 0 mm 1 mps 763 mmHg 44%
    13:00 +29°C° 0 mm 2 mps 763 mmHg 44%
    14:00 +30°C° 0 mm 2 mps 763 mmHg 43%
    15:00 +30°C° 0 mm 3 mps 762 mmHg 43%
    16:00 +30°C° 0 mm 3 mps 762 mmHg 46%
    17:00 +30°C° 0 mm 3 mps 762 mmHg 49%
    18:00 +29°C° 0 mm 3 mps 761 mmHg 52%
    19:00 +27°C° 0 mm 4 mps 761 mmHg 60%
    20:00 +23°C° 0 mm 5 mps 761 mmHg 67%
    21:00 +21°C° 0 mm 5 mps 761 mmHg 75%
    22:00 +20°C° 0 mm 6 mps 761 mmHg 77%
    23:00 +20°C° 0 mm 6 mps 761 mmHg 80%

    Day after tomorrow, 23 July, Tuesday

    Time Temperature Precipitation Wind Pressure Humidity
    00:00 +20°C° 0 mm 6 mps 760 mmHg 83%
    01:00 +20°C° 0 mm 5 mps 760 mmHg 81%
    02:00 +19°C° 0 mm 5 mps 760 mmHg 79%
    03:00 +19°C° 0 mm 5 mps 759 mmHg 77%
    04:00 +20°C° 0 mm 5 mps 759 mmHg 75%
    05:00 +20°C° 0 mm 5 mps 758 mmHg 73%
    06:00 +21°C° 0 mm 5 mps 758 mmHg 71%
    07:00 +23°C° 0 mm 5 mps 757 mmHg 64%
    08:00 +27°C° 0 mm 5 mps 757 mmHg 57%
    09:00 +30°C° 0 mm 5 mps 757 mmHg 50%
    10:00 +33°C° 0 mm 4 mps 757 mmHg 46%
    11:00 +35°C° 0 mm 4 mps 756 mmHg 41%
    12:00 +37°C° 0 mm 4 mps 756 mmHg 37%
    13:00 +35°C° 0 mm 5 mps 755 mmHg 43%
    14:00 +34°C° 0 mm 5 mps 755 mmHg 49%
    15:00 +32°C° 0 mm 6 mps 754 mmHg 55%
    16:00 +30°C° 0 mm 5 mps 754 mmHg 61%
    17:00 +28°C° 0 mm 4 mps 754 mmHg 68%
    18:00 +27°C° 0 mm 4 mps 754 mmHg 74%
    19:00 +25°C° 0 mm 3 mps 754 mmHg 81%
    20:00 +24°C° 0 mm 3 mps 755 mmHg 87%
    21:00 +21°C° 0 mm 2 mps 755 mmHg 94%
    22:00 +21°C° 0 mm 3 mps 755 mmHg 93%
    23:00 +20°C° 0 mm 3 mps 756 mmHg 93%

    24 July, Wednesday

    Time Temperature Precipitation Wind Pressure Humidity
    00:00 +20°C° 0 mm 4 mps 756 mmHg 92%
    01:00 +19°C° 0 mm 3 mps 756 mmHg 92%
    02:00 +19°C° 0 mm 3 mps 756 mmHg 91%
    03:00 +19°C° 0 mm 2 mps 756 mmHg 91%
    04:00 +19°C° 0 mm 2 mps 756 mmHg 89%
    05:00 +19°C° 0 mm 2 mps 756 mmHg 86%
    06:00 +19°C° 0 mm 3 mps 756 mmHg 83%
    07:00 +21°C° 0 mm 2 mps 756 mmHg 74%
    08:00 +24°C° 0 mm 1 mps 757 mmHg 65%
    09:00 +27°C° 0 mm 1 mps 757 mmHg 56%
    10:00 +28°C° 0 mm 1 mps 756 mmHg 51%
    11:00 +30°C° 0 mm 1 mps 756 mmHg 47%
    12:00 +31°C° 0 mm 2 mps 756 mmHg 42%
    13:00 +31°C° 0 mm 2 mps 755 mmHg 43%
    14:00 +31°C° 0 mm 3 mps 755 mmHg 43%
    15:00 +31°C° 0 mm 3 mps 755 mmHg 43%
    16:00 +30°C° 0 mm 3 mps 754 mmHg 47%
    17:00 +28°C° 0 mm 2 mps 754 mmHg 52%
    18:00 +27°C° 0 mm 2 mps 753 mmHg 57%
    19:00 +25°C° 0 mm 1 mps 753 mmHg 62%
    20:00 +23°C° 0 mm 1 mps 753 mmHg 67%
    21:00 +19°C° 0 mm 0 mps 753 mmHg 72%
    22:00 +19°C° 0 mm 0 mps 753 mmHg 71%
    23:00 +21°C° 0 mm 1 mps 752 mmHg 70%

    25 July, Thursday

    Time Temperature Precipitation Wind Pressure Humidity
    00:00 +22°C° 0 mm 1 mps 752 mmHg 69%
    01:00 +22°C° 0 mm 1 mps 751 mmHg 69%
    02:00 +22°C° 0 mm 1 mps 751 mmHg 69%
    03:00 +21°C° 0 mm 0 mps 751 mmHg 69%
    04:00 +22°C° 0 mm 1 mps 751 mmHg 72%
    05:00 +21°C° 0 mm 2 mps 751 mmHg 75%
    06:00 +21°C° 0 mm 3 mps 751 mmHg 78%
    07:00 +22°C° 0 mm 4 mps 751 mmHg 73%
    08:00 +25°C° 0 mm 5 mps 751 mmHg 69%
    09:00 +27°C° 0 mm 6 mps 752 mmHg 64%
    10:00 +26°C° 0 mm 6 mps 752 mmHg 62%
    11:00 +26°C° 0 mm 7 mps 753 mmHg 61%
    12:00 +26°C° 0 mm 7 mps 753 mmHg 59%
    13:00 +26°C° 0 mm 7 mps 753 mmHg 59%
    14:00 +24°C° 0 mm 7 mps 754 mmHg 60%
    15:00 +24°C° 0 mm 7 mps 754 mmHg 60%
    16:00 +23°C° 0 mm 7 mps 754 mmHg 64%
    17:00 +22°C° 0 mm 7 mps 754 mmHg 67%
    18:00 +21°C° 0 mm 7 mps 754 mmHg 70%
    19:00 +21°C° 0 mm 6 mps 755 mmHg 75%
    20:00 +20°C° 0 mm 6 mps 755 mmHg 80%
    21:00 +19°C° 0 mm 6 mps 756 mmHg 85%
    22:00 +19°C° 0 mm 6 mps 756 mmHg 83%
    23:00 +17°C° 0 mm 6 mps 756 mmHg 82%

    26 July, Friday

    Time Temperature Precipitation Wind Pressure Humidity
    00:00 +17°C° 0 mm 7 mps 757 mmHg 81%
    01:00 +16°C° 0 mm 6 mps 757 mmHg 82%
    02:00 +16°C° 0 mm 6 mps 757 mmHg 84%
    03:00 +15°C° 0 mm 5 mps 757 mmHg 85%
    04:00 +15°C° 0 mm 5 mps 757 mmHg 83%
    05:00 +16°C° 0 mm 5 mps 758 mmHg 81%
    06:00 +16°C° 0 mm 5 mps 758 mmHg 79%
    07:00 +17°C° 0.1 mm 5 mps 758 mmHg 74%
    08:00 +20°C° 0.1 mm 6 mps 758 mmHg 70%
    09:00 +21°C° 0.1 mm 6 mps 759 mmHg 65%
    10:00 +22°C° 0.1 mm 6 mps 759 mmHg 62%
    11:00 +22°C° 0.1 mm 7 mps 759 mmHg 59%
    12:00 +23°C° 0.1 mm 7 mps 759 mmHg 55%
    13:00 +23°C° 0.1 mm 7 mps 759 mmHg 56%
    14:00 +23°C° 0.1 mm 6 mps 759 mmHg 58%
    15:00 +22°C° 0.1 mm 6 mps 759 mmHg 59%
    16:00 +22°C° 0 mm 6 mps 759 mmHg 60%
    17:00 +21°C° 0 mm 6 mps 760 mmHg 62%
    18:00 +20°C° 0 mm 6 mps 760 mmHg 63%
    19:00 +19°C° 0 mm 5 mps 760 mmHg 71%
    20:00 +16°C° 0 mm 5 mps 761 mmHg 80%
    21:00 +14°C° 0 mm 4 mps 761 mmHg 89%
    22:00 +14°C° 0 mm 4 mps 761 mmHg 90%
    23:00 +14°C° 0 mm 3 mps 761 mmHg 91%
    Show more